Home > Weather > Ahvaz > Past weeks

Flag for Iran Weather for the Past 2 Weeks in Ahvaz, Iran

Now
95 °F

Sunny.


Feels Like: 91 °F
Forecast: 71 / 101 °F
Wind: 9 mph from Northwest

Location: Ahwaz

Current Time: May 1, 2016 at 4:32:33 PM

Latest Report: May 1, 2016 at 4:00 PM


Visibility: 10 mi

Pressure: 29.77 "Hg

Humidity: 16%

Dew Point: 43 °F

Location of AhvazLocation

Historic Weather in Ahvaz — Graph

°F

Ahvaz Temperature Yesterday

Maximum temperature yesterday: 88 °F (at 2:30 PM)
Minimum temperature yesterday: 72 °F (at 6:30 AM)
Average temperature yesterday: 82 °F

High & Low Weather Summary for the Past Weeks

 TemperatureHumidityPressure
High108 °F (Apr 27, 3:30 PM)83% (Apr 17, 4:30 AM)29.98 "Hg (Apr 17, 4:30 AM)
Low63 °F (Apr 20, 6:30 AM)10% (Apr 22, 5:30 PM)29.56 "Hg (Apr 30, 9:00 AM)
Average85 °F33%29.81 "Hg
* Reported Apr 16 3:30 PM — May 1 3:30 PM, Ahvaz, Weather by CustomWeather, © 2016

Note: Actual official high and low records may vary slightly from our data, if they occured in-between our weather recording intervals... More about our weather records

Advertising

Ahvaz Weather History for the Previous 24 Hours

Scroll right to see more
 ConditionsComfort  
Time TempWeatherWind HumidityBarometerVisibility
3:30 PM
Sun, May 1
95 °FSunny.9 mph15%29.80 "Hg10 mi
3:00 PM95 °FSunny.9 mph14%29.80 "Hg10 mi
2:30 PM93 °FSunny.5 mph16%29.80 "Hg10 mi
2:00 PM95 °FSunny.5 mph14%29.83 "Hg10 mi
1:30 PM93 °FSunny.7 mph17%29.83 "Hg10 mi
1:00 PM93 °FSunny.7 mph14%29.83 "Hg10 mi
12:30 PM91 °FSunny.12 mph16%29.83 "Hg10 mi
12:00 PM90 °FSunny.9 mph18%29.86 "Hg10 mi
11:30 AM88 °FSunny.7 mph19%29.86 "Hg10 mi
11:00 AM88 °FSunny.5 mph18%29.86 "Hg10 mi
10:30 AM84 °FSunny.7 mph33%29.86 "Hg10 mi
10:00 AM81 °FSunny.2 mph32%29.86 "Hg10 mi
9:00 AM77 °FSunny.2 mph36%29.83 "Hg10 mi
8:30 AM75 °FSunny.No wind50%29.83 "Hg10 mi
8:00 AM73 °FSunny.No wind47%29.83 "Hg10 mi
6:30 AM66 °FClear.No wind64%29.80 "Hg10 mi
5:30 AM70 °FClear.No wind57%29.80 "Hg10 mi
4:25 AM70 °FClear.2 mph53%29.83 "Hg10 mi
3:27 AM72 °FClear.No wind50%29.83 "Hg10 mi
2:30 AM75 °FClear.2 mph47%29.83 "Hg10 mi
1:28 AM77 °FClear.2 mph47%29.86 "Hg10 mi
12:30 AM75 °FClear.No wind54%29.86 "Hg10 mi
11:57 PM
Sat, Apr 30
77 °FClear.No wind39%29.86 "Hg10 mi
11:30 PM77 °FClear.2 mph44%29.86 "Hg10 mi
11:00 PM79 °FClear.No wind42%29.86 "Hg10 mi
10:30 PM79 °FClear.5 mph45%29.86 "Hg10 mi
10:00 PM79 °FClear.5 mph39%29.86 "Hg10 mi
9:30 PM81 °FClear.5 mph39%29.83 "Hg10 mi
9:00 PM81 °FSunny.5 mph39%29.83 "Hg10 mi
8:30 PM82 °FSunny.No wind42%29.83 "Hg10 mi
8:00 PM84 °FSunny.No wind27%29.83 "Hg10 mi
7:30 PM86 °FSunny.5 mph33%29.83 "Hg10 mi
7:00 PM88 °FScattered clouds.7 mph22%29.83 "HgN/A
6:30 PM88 °FScattered clouds.7 mph19%29.83 "HgN/A
6:00 PM88 °FScattered clouds.9 mph22%29.83 "HgN/A
5:30 PM88 °FPartly sunny.9 mph21%29.83 "HgN/A
4:26 PM88 °FSunny.9 mph25%29.83 "Hg10 mi
4:00 PM88 °FMore clouds than sun.12 mph27%29.83 "HgN/A
Weather by CustomWeather, © 2016

See weather overviewHow to use our weather pages